[[{"header":{"parameterUnit":"m.s-1","parameterCategory":1,"la1":30.2991,"la2":30.254,"lo1":-89.0895,"lo2":-89.0444,"dy":0.0017,"dx":0.0017,"nx":28,"ny":28,"refTime":"2024-05-13T09:00:00:Z","depth":0,"parameterNumber":2,"parameterNumberName":"U-component_of_WINDS"},"data":[0,0,0,0,0,0,0,0,0,0,0,0,0,0,0,0,0,0,0,0,0,0,0,0,0,0,0,0,0,0,0,0,0,0,0,0,0,0,0,0,0,0,0,0,0,0,0,0,0,0,0,0,0,0,0,0,0,0,5.6775,5.6777,0,5.6957,5.6959,5.6961,5.6979,5.6977,5.6975,5.6974,5.7152,5.7158,5.7165,0,0,0,0,0,0,0,0,0,0,0,0,0,5.6431,5.6437,5.6775,5.6777,5.678,5.6957,5.6959,5.6962,5.6979,5.6977,5.6975,5.6973,5.715,5.7157,5.7165,0,0,0,0,0,0,0,0,0,0,0,0,0,5.6593,5.6439,5.6774,5.681,5.6815,5.6956,5.6959,5.6963,5.698,5.6977,5.6974,5.6972,5.7147,5.7157,5.7166,5.7282,0,0,5.7196,5.72,0,0,0,0,0,0,0,0,5.6584,5.6606,5.6802,5.6808,5.6814,5.6943,5.6904,5.7069,5.6981,5.6917,5.6974,5.697,5.7084,5.7099,5.7139,5.7291,5.7298,5.7197,5.7203,5.7207,5.721,0,0,0,0,0,0,0,5.6573,5.6598,5.6847,5.6805,5.6812,5.6813,5.6833,5.6935,5.7014,5.6922,5.6924,5.6946,5.7086,5.7129,5.7143,5.7301,5.7197,5.7205,5.7211,5.7215,5.7552,5.7555,0,0,0,0,0,0,5.6556,5.6589,5.6841,5.6852,5.669,5.6821,5.6844,5.6904,5.7013,5.7027,5.6948,5.6946,5.7114,5.7132,5.7149,5.7289,5.7207,5.7216,5.7222,5.7549,5.7552,5.7556,0,0,0,0,0,0,5.6549,5.6579,5.6834,5.6721,5.6754,5.683,5.6898,5.6909,5.6952,5.7032,5.7045,5.6978,5.7113,5.7136,5.7249,5.7296,5.722,5.7229,5.7545,5.755,5.7554,5.7572,0,0,0,0,0,0,5.6539,5.6576,5.6624,5.6722,5.676,5.6933,5.6901,5.6915,5.697,5.6969,5.7064,5.7077,5.7112,5.7234,5.7258,5.7308,5.7237,5.7541,5.7547,5.7553,5.7567,5.7577,5.7584,0,0,0,0,0,5.6527,5.6621,5.6626,5.6657,5.6822,5.6936,5.6957,5.6998,5.6974,5.702,5.7071,5.7074,5.7287,5.7245,5.7273,5.7326,5.7538,5.7545,5.7552,5.7563,5.7575,5.7584,0,0,0,0,0,0,5.6524,5.6635,5.6642,5.6771,5.6844,5.6939,5.6999,5.7009,5.7089,5.7084,5.7129,5.715,5.726,5.7305,5.7256,5.7441,5.741,5.7422,5.7409,5.742,5.7428,5.7414,5.7245,0,0,0,0,0,5.6539,5.6626,5.6717,5.6822,5.6858,5.6922,5.6974,5.6999,5.7075,5.7105,5.7165,5.7236,5.7318,5.7372,5.7453,5.7574,5.7592,5.7623,5.7632,5.7639,5.7648,5.7711,5.7725,5.7579,5.7579,5.7579,0,0,5.657,5.6641,5.6693,5.6823,5.6883,5.6968,5.6948,5.704,5.7102,5.7119,5.7229,5.7274,5.7356,5.7473,5.7527,5.7513,5.7693,5.7647,5.7652,5.7659,5.7719,5.7733,5.7745,5.7583,5.7583,5.7582,0,0,5.6669,5.6734,5.6827,5.6887,5.6978,5.7019,5.7041,5.7134,5.7165,5.7277,5.729,5.7362,5.7505,5.7562,5.7609,5.7726,5.773,5.7751,5.7794,5.7855,5.7866,5.7877,5.7914,5.7928,5.7761,5.7761,5.7761,0,5.6695,5.6828,5.6872,5.6964,5.7018,5.7038,5.713,5.7185,5.7296,5.7332,5.7315,5.7492,5.7549,5.7677,5.7705,5.7744,5.7767,5.774,5.7862,5.7872,5.7883,5.7919,5.7934,5.7762,5.7762,5.7762,5.7762,0,5.6853,5.6944,5.7008,5.7116,5.7178,5.7269,5.7323,5.738,5.7398,5.744,5.755,5.7619,5.7712,5.7745,5.7764,5.7874,5.7862,5.7853,5.7821,5.7898,5.7932,5.7947,5.7765,5.7764,5.7764,5.7763,0,0,5.6957,5.7088,5.711,5.7158,5.7258,5.7327,5.7416,5.751,5.7555,5.763,5.7703,5.7822,5.7813,5.7867,5.7892,5.7945,5.8028,5.793,5.7932,5.7942,5.8148,5.8153,5.8169,5.8032,5.8035,5.8037,5.814,0,5.7065,5.7229,5.727,5.7407,5.7488,5.7507,5.7584,5.7651,5.7692,5.7764,5.7807,5.789,5.7874,5.7906,5.796,5.8007,5.8069,5.8,5.8096,5.8099,5.8073,5.8188,5.8193,5.8288,5.8155,5.8157,5.8159,0,5.7214,5.7294,5.744,5.7526,5.7561,5.7631,5.7717,5.7787,5.7862,5.7887,5.7945,5.7964,5.8053,5.8018,5.8138,5.809,5.8131,5.816,5.8164,5.8173,5.8132,5.8196,5.8319,5.8332,5.8181,5.818,5.8178,0,5.727,5.7414,5.7519,5.756,5.7664,5.7711,5.7756,5.7828,5.788,5.7954,5.7987,5.807,5.8115,5.8176,5.8215,5.8187,5.833,5.83,5.835,5.8349,5.8378,5.8375,5.8507,5.8409,5.8409,5.8409,5.8408,0,5.7386,5.7473,5.7546,5.761,5.7707,5.7751,5.7844,5.7889,5.7952,5.8022,5.8043,5.8107,5.8156,5.8226,5.8256,5.8348,5.8369,5.8389,5.8395,5.8386,5.8383,5.8412,5.8405,5.8413,5.8412,5.8411,5.841,0,5.7465,5.7518,5.7633,5.7721,5.7745,5.7812,5.7886,5.7947,5.7987,5.8075,5.8098,5.816,5.8243,5.8288,5.8392,5.8412,5.8514,5.8518,5.8489,5.8492,5.8538,5.8532,5.8691,5.8712,5.8603,5.8604,5.8605,0,5.7534,5.7602,5.7698,5.7748,5.7794,5.7873,5.7926,5.7971,5.8024,5.8112,5.8161,5.8246,5.8315,5.8446,5.8497,5.8575,5.858,5.863,5.8592,5.8578,5.8576,5.8571,5.8576,5.8636,5.8637,5.8638,5.8638,0,5.765,5.7672,5.7749,5.7835,5.7898,5.7967,5.8035,5.8073,5.8127,5.8186,5.8272,5.8326,5.8431,5.8513,5.8594,5.8636,5.8645,5.865,5.8665,5.8655,5.8634,5.8642,5.8504,5.8646,5.8645,5.8645,5.8644,5.8644,5.7724,5.7784,5.786,5.7944,5.8,5.8062,5.8122,5.817,5.8244,5.8334,5.8355,5.8444,5.8512,5.8623,5.8667,5.8734,5.8724,5.8747,5.8752,5.8757,5.8757,5.8625,5.8749,5.8749,5.8749,5.8749,5.8749,0,5.7838,5.7887,5.7964,5.8059,5.8124,5.813,5.8204,5.8256,5.8336,5.84,5.8468,5.8564,5.8643,5.87,5.8779,5.8821,5.8827,5.884,5.8836,5.8845,5.8763,5.8741,5.8834,5.8834,5.8834,5.8834,5.8834,5.8834,5.7904,5.8004,5.8035,5.816,5.8208,5.8298,5.8339,5.8395,5.8446,5.8554,5.862,5.8657,5.8717,5.88,5.8871,5.8885,5.8912,5.8924,5.8938,5.886,5.8851,5.8842,5.8821,5.893,5.893,5.9014,5.9015,5.9015]},{"header":{"parameterUnit":"m.s-1","parameterCategory":1,"la1":30.2991,"la2":30.254,"lo1":-89.0895,"lo2":-89.0444,"dy":0.0017,"dx":0.0017,"nx":28,"ny":28,"refTime":"2024-05-13T09:00:00:Z","depth":0,"parameterNumber":3,"parameterNumberName":"V-component_of_WINDS"},"data":[0,0,0,0,0,0,0,0,0,0,0,0,0,0,0,0,0,0,0,0,0,0,0,0,0,0,0,0,0,0,0,0,0,0,0,0,0,0,0,0,0,0,0,0,0,0,0,0,0,0,0,0,0,0,0,0,0,0,3.5304,3.531,0,3.5932,3.5939,3.5946,3.6109,3.6106,3.6102,3.6098,3.6748,3.6768,3.6789,0,0,0,0,0,0,0,0,0,0,0,0,0,3.4245,3.4264,3.5303,3.5311,3.5319,3.5931,3.594,3.5948,3.611,3.6105,3.6101,3.6096,3.6741,3.6766,3.6791,0,0,0,0,0,0,0,0,0,0,0,0,0,3.4772,3.427,3.5302,3.5473,3.5495,3.5929,3.594,3.5951,3.6111,3.6105,3.6099,3.6094,3.6733,3.6763,3.6794,3.7105,0,0,3.689,3.6904,0,0,0,0,0,0,0,0,3.4742,3.4811,3.544,3.5462,3.5487,3.5936,3.5805,3.6338,3.6113,3.5877,3.6098,3.6091,3.6483,3.6535,3.6666,3.7135,3.7163,3.6893,3.6912,3.6926,3.6935,0,0,0,0,0,0,0,3.4706,3.4785,3.5552,3.5449,3.5478,3.552,3.5588,3.5907,3.6206,3.5897,3.5911,3.5983,3.6495,3.6635,3.6682,3.7173,3.6892,3.692,3.694,3.6952,3.7926,3.7933,0,0,0,0,0,0,3.4639,3.4753,3.5532,3.5571,3.5093,3.5543,3.562,3.5798,3.6202,3.6258,3.5987,3.5988,3.6584,3.6645,3.6705,3.7095,3.6925,3.6955,3.6973,3.7919,3.7928,3.7935,0,0,0,0,0,0,3.4615,3.4707,3.5507,3.5166,3.5271,3.5568,3.5767,3.5814,3.5954,3.627,3.6324,3.6075,3.6582,3.6661,3.7003,3.712,3.6969,3.6998,3.7911,3.7922,3.7931,3.7876,0,0,0,0,0,0,3.4584,3.4697,3.4818,3.5168,3.5289,3.5794,3.5774,3.583,3.6007,3.6014,3.6367,3.642,3.6583,3.6956,3.7034,3.716,3.7022,3.7902,3.7916,3.7928,3.7869,3.7883,3.7896,0,0,0,0,0,3.4546,3.478,3.4824,3.4917,3.5446,3.58,3.587,3.6051,3.6015,3.614,3.6342,3.6409,3.7093,3.6989,3.708,3.7216,3.7895,3.7912,3.7927,3.7863,3.788,3.7895,0,0,0,0,0,0,3.444,3.4829,3.4882,3.5235,3.5483,3.5827,3.599,3.6064,3.6329,3.6325,3.654,3.6619,3.6946,3.7116,3.6993,3.7536,3.7495,3.7529,3.7415,3.7434,3.7447,3.7401,3.7048,0,0,0,0,0,3.4457,3.4711,3.5037,3.5317,3.5439,3.5691,3.5853,3.597,3.6237,3.6343,3.6571,3.6828,3.71,3.7276,3.7545,3.7892,3.7971,3.803,3.8043,3.8053,3.8082,3.8276,3.8306,3.7987,3.7987,3.7987,0,0,3.4497,3.474,3.4888,3.5302,3.5508,3.5767,3.5779,3.6053,3.6248,3.6386,3.6722,3.6897,3.7198,3.7543,3.7706,3.7694,3.8186,3.8073,3.8078,3.8103,3.8295,3.8325,3.8352,3.7998,3.7996,3.7994,0,0,3.4701,3.491,3.5166,3.537,3.568,3.5846,3.5906,3.6239,3.6359,3.6699,3.6807,3.7041,3.7507,3.7716,3.7883,3.8159,3.823,3.824,3.8312,3.8499,3.8524,3.8547,3.8646,3.8679,3.8267,3.8267,3.8267,0,3.4712,3.5105,3.5288,3.5556,3.5735,3.5867,3.6127,3.6317,3.6699,3.682,3.6799,3.7384,3.7596,3.7991,3.8057,3.8188,3.8264,3.8203,3.8505,3.853,3.8555,3.8651,3.8688,3.8266,3.8266,3.8266,3.8266,0,3.5102,3.5372,3.5541,3.5904,3.6101,3.6364,3.6587,3.6765,3.6863,3.703,3.7373,3.7631,3.7952,3.8054,3.8155,3.8463,3.8446,3.8462,3.8425,3.8581,3.8676,3.8714,3.8265,3.8265,3.8266,3.8266,0,0,3.5264,3.5719,3.5778,3.5943,3.6291,3.6505,3.6771,3.7083,3.7231,3.7488,3.7718,3.8105,3.8122,3.8311,3.8435,3.8599,3.8799,3.8596,3.8606,3.8625,3.9154,3.914,3.918,3.8846,3.8854,3.8861,3.9129,0,3.5512,3.5993,3.6163,3.6561,3.6812,3.6938,3.717,3.7409,3.7571,3.7808,3.7988,3.8259,3.826,3.8374,3.8541,3.8739,3.8909,3.8722,3.9064,3.9074,3.8987,3.923,3.9219,3.9459,3.9167,3.9173,3.9178,0,3.5868,3.6126,3.6547,3.6861,3.6973,3.7179,3.7476,3.7701,3.7973,3.8079,3.8286,3.8398,3.8682,3.8623,3.9017,3.8885,3.9034,3.9152,3.9166,3.9208,3.9137,3.9279,3.9541,3.9577,3.9238,3.9233,3.9229,0,3.5944,3.6397,3.6707,3.6844,3.7217,3.7358,3.7521,3.7787,3.7962,3.8221,3.8337,3.8626,3.8786,3.9007,3.9193,3.9133,3.957,3.9527,3.9667,3.9662,3.9757,3.9749,4.0047,3.9848,3.9847,3.9846,3.9846,0,3.6206,3.6458,3.6745,3.6936,3.7222,3.7414,3.7692,3.7862,3.8096,3.8323,3.8448,3.8658,3.889,3.9129,3.9276,3.9579,3.965,3.9744,3.9781,3.9735,3.9723,3.9838,3.9827,3.9856,3.9854,3.9852,3.9851,0,3.6341,3.6543,3.6889,3.7212,3.7299,3.7495,3.7772,3.7962,3.8126,3.841,3.8488,3.8747,3.9035,3.9241,3.9613,3.9711,4.0037,4.0072,3.9945,3.9963,4.0092,4.0077,4.0477,4.0539,4.0294,4.0297,4.0298,0,3.6496,3.6693,3.7035,3.7194,3.7355,3.761,3.7788,3.7983,3.8163,3.8484,3.8635,3.893,3.9177,3.9631,3.9853,4.0137,4.0181,4.0301,4.0225,4.0171,4.0185,4.0171,4.0192,4.0313,4.0315,4.0316,4.0318,0,3.6751,3.6839,3.709,3.7375,3.7582,3.7817,3.8053,3.8176,3.8412,3.8608,3.8902,3.9092,3.9469,3.9761,4.0065,4.0233,4.0316,4.0338,4.0386,4.0343,4.0261,4.0308,3.9977,4.033,4.0329,4.0328,4.0327,4.0327,3.6903,3.7083,3.735,3.7624,3.7821,3.8037,3.823,3.8416,3.8664,3.8984,3.9083,3.9388,3.9651,4.0068,4.0238,4.0479,4.0474,4.0543,4.0561,4.0576,4.0574,4.0219,4.0535,4.0535,4.0535,4.0535,4.0535,0,3.7165,3.7341,3.7591,3.7915,3.813,3.8183,3.8445,3.8622,3.8888,3.9125,3.9364,3.97,3.9981,4.0222,4.0514,4.066,4.0705,4.0731,4.0724,4.0761,4.0562,4.0492,4.0689,4.0689,4.0689,4.0689,4.0689,4.0689,3.7326,3.7633,3.7752,3.8155,3.8331,3.8629,3.8774,3.8973,3.9163,3.9532,3.9765,3.9919,4.0158,4.0467,4.0727,4.0791,4.0893,4.091,4.0982,4.0793,4.0775,4.0758,4.0693,4.093,4.093,4.1162,4.1164,4.1166]}]]